Vertical_Velocity
1 14 -2 -7 2 6 -4 2 1 2 2 3 2 1 1 1 1 1 0 0 0 -0 -1 -1 -0 1 -0 -1 -1 -1 0 -1 -1 -7 -2 -0 -2 -1 -0 1 0 -4 -2
14 0 5 1 1 7 -8 -3 -2 1 2 3 1 -0 1 1 1 1 0 -0 -1 -1 -1 -1 -0 -0 -1 -1 -1 -0 -0 -1 -1 -2 -5 -6 -2 -1 -2 -3 -0 2 2
2 -1 3 2 9 -7 10 -0 -0 -2 1 2 2 0 -1 0 -0 -0 -1 -1 -1 -1 -0 -1 -1 -0 -1 -1 -1 -0 -1 -1 -0 0 -2 -2 -6 -3 -1 0 -2 -2 -1
2 -1 -2 14 4 -7 7 5 -5 -2 5 2 2 0 -1 -1 -1 -1 -1 -2 -2 0 -1 -1 -1 -1 -0 -0 -1 -1 -1 -2 0 1 0 -2 -0 -4 -3 -2 -11 -2 -5
3 3 5 -6 13 -3 -19 8 -1 5 -0 4 -4 1 1 -2 -2 -2 -0 -1 -0 -1 -1 -1 -1 -1 -2 -1 -1 -1 -1 -1 -1 -0 -0 -1 -1 -3 -0 -7 -1 -1 -9
7 5 2 10 -3 -5 8 2 3 9 -10 6 5 -8 -4 4 -4 -1 1 -1 -2 -0 -0 -1 -1 -2 -2 -1 -1 -1 -1 -1 -0 -1 -1 -0 -1 1 -1 1 -3 -3 -11
6 8 5 -0 3 -2 6 -4 9 -6 -2 3 1 -0 -2 -1 -4 -3 1 -2 -1 -0 -1 -1 -1 -1 -1 -2 -2 -0 0 2 -0 -2 -2 -2 -3 -1 1 1 2 0 -3
-4 0 1 5 -2 3 5 1 -2 -0 4 -5 2 0 -5 -1 -2 -2 1 0 -1 -1 -1 -1 -1 -1 -1 -0 -2 -1 -1 -0 1 2 1 -1 0 -2 2 4 0 -4 -9
1 -5 1 -3 4 -1 -0 -1 4 -3 1 -1 -1 -4 1 -1 2 -1 2 -1 -0 -1 -1 -2 -3 -1 -0 2 -3 -3 -3 -1 3 0 2 2 1 0 2 1 -3 2 -11
5 3 -3 5 2 1 4 -0 -2 5 -3 -2 -1 0 -0 1 -0 0 -1 -1 -0 -2 -2 -0 1 -2 -5 -3 -2 -1 -1 -0 -2 -0 -1 -1 2 2 1 2 1 -1 -3
-1 2 4 2 2 3 1 2 -2 -2 -1 0 1 -1 -1 1 -1 -0 -1 -1 -1 -2 -1 -2 -3 -2 -1 -1 0 0 0 -2 -2 -0 -2 -1 -2 -2 -1 -0 -0 1 1
-6 -1 3 -0 1 1 -1 -2 -3 -1 0 1 -1 -3 -2 -0 -0 0 -0 -2 -2 -3 -4 -3 -1 0 1 0 -1 -1 -1 -1 -1 -2 -2 -2 -2 -3 -4 -1 1 2 2
-3 0 3 -0 -4 0 -1 0 -0 -1 -1 -0 -1 -0 -1 0 1 -2 -3 -2 -2 -2 -1 0 -1 -2 -1 0 -0 -1 -0 0 0 -0 -1 -2 -2 -1 -1 -0 -1 0 -0
1 -1 -2 0 -0 0 -0 -0 -0 -1 -0 -1 -2 0 1 -1 -3 -3 -2 -2 -1 -0 0 0 0 -0 -1 -1 -1 0 1 1 -0 -1 -1 -2 -1 -3 -3 0 1 -1 -1
2 1 -0 -0 0 1 1 1 0 -1 -1 0 -1 -3 -2 -0 -0 -1 -3 -2 0 -0 -2 -1 -4 -3 1 1 -1 -1 -0 -1 -2 -0 -1 -2 -1 0 -1 -1 -1 -2 -0
-3 -2 -0 0 2 1 1 -0 -1 0 0 -3 -3 -2 -3 -3 -1 -0 -1 1 1 -1 -2 -2 -1 2 -1 -2 -2 -3 -3 -3 -2 -1 -1 0 -0 -1 -2 -3 0 0 -2
2 1 1 2 2 -1 -1 -1 -2 -2 -3 -2 -1 -2 -2 -1 -0 0 0 -1 -3 -2 -1 0 -1 -2 -3 -2 -2 -1 -2 -1 -0 -1 1 -1 -0 1 0 -2 -1 0 -2
0 -2 -1 -1 -2 -1 0 -0 0 -1 -0 -1 -1 -1 -0 -0 -2 -2 -1 -2 -2 1 -1 -1 -2 -2 -2 -1 -1 -1 -2 -1 -0 -0 0 1 1 1 -2 -1 0 1 0
2 1 -0 -2 -0 2 -1 -4 -2 1 1 1 2 1 -1 -2 -1 -1 -1 -0 -2 -2 -1 -1 -1 -2 -2 -0 -0 -2 0 -0 -0 1 0 0 0 2 -1 1 2 2 4
2 2 2 1 -0 -4 -1 1 -1 2 2 -1 -1 -2 -1 1 -0 -1 -2 -3 -0 -0 -2 -3 -2 -0 -1 -1 -0 1 -0 0 -0 0 -0 1 0 1 -0 1 0 1 -0
-1 -4 -4 -3 0 1 1 -2 -2 2 2 -0 1 1 1 -2 -2 -1 0 1 -1 -2 -2 -1 -0 -0 1 1 1 0 0 0 1 1 1 1 2 -1 1 1 -1 -0 1
4 2 -0 -0 -1 -0 -1 -2 -3 -3 -4 -1 -1 -2 -2 -3 -2 1 -0 -2 -1 -1 -1 -1 -1 -0 1 0 0 -0 0 0 1 2 1 1 0 -1 0 -1 1 1 2
4 0 -2 -1 1 1 -1 0 2 1 -0 -2 -1 -1 -1 -0 -1 -1 -0 -0 -0 -1 -0 -0 -1 -1 0 0 1 1 -1 1 1 2 -1 0 -0 -0 -0 6 3 -2 1
0 -0 -0 -1 -2 -1 -1 -1 -1 -2 -1 -2 -1 0 -1 -0 -0 -0 -1 -1 -1 -1 -2 -1 -1 -1 -1 0 1 1 1 1 0 -1 3 -1 3 4 6 1 1 0 0
-0 -2 -2 2 -2 -1 -1 0 0 -0 -1 -3 -3 0 0 -1 -0 -1 -0 -0 -2 -2 -1 -1 -1 -0 -0 0 0 1 0 0 -1 3 4 3 4 1 -0 -1 0 -1 1
0 -1 -3 -2 -2 -0 -0 -1 -2 -0 0 -4 -0 0 -1 -1 -0 0 0 -1 -1 -0 -1 -1 -0 -1 -1 -1 -1 -0 0 -1 2 4 0 1 2 -2 -1 -1 0 1 0
Height
1458 1469 1476 1488 1493 1495 1500 1506 1510 1513 1517 1519 1521 1524 1527 1529 1531 1532 1534 1535 1536 1537 1538 1539 1539 1538 1537 1537 1536 1536 1535 1534 1533 1532 1530 1527 1523 1520 1517 1513 1510 1508 1505
1448 1463 1474 1482 1490 1486 1496 1502 1508 1510 1515 1517 1518 1521 1524 1526 1528 1530 1531 1532 1534 1535 1535 1536 1536 1535 1534 1534 1533 1532 1531 1529 1528 1526 1524 1522 1519 1516 1512 1509 1506 1504 1501
1453 1463 1472 1477 1481 1486 1495 1494 1503 1507 1514 1514 1515 1518 1522 1524 1526 1527 1529 1530 1532 1533 1533 1533 1533 1532 1531 1530 1529 1528 1527 1526 1524 1522 1520 1517 1514 1512 1507 1504 1502 1499 1496
1451 1462 1468 1469 1479 1483 1494 1494 1498 1508 1509 1509 1512 1515 1518 1522 1525 1526 1527 1528 1530 1529 1529 1529 1528 1528 1527 1526 1525 1524 1522 1521 1520 1518 1515 1513 1510 1507 1504 1501 1497 1495 1492
1453 1460 1464 1468 1478 1476 1494 1495 1498 1503 1505 1507 1509 1514 1518 1520 1523 1525 1525 1526 1526 1526 1525 1525 1524 1523 1522 1521 1521 1520 1519 1517 1516 1514 1511 1509 1507 1504 1501 1498 1495 1491 1488
1452 1457 1462 1467 1470 1483 1490 1491 1497 1496 1506 1507 1508 1510 1518 1519 1520 1523 1523 1522 1522 1522 1522 1521 1520 1519 1518 1517 1516 1515 1514 1512 1511 1509 1507 1505 1503 1501 1498 1495 1491 1487 1482
1451 1457 1461 1466 1473 1482 1487 1489 1494 1496 1505 1506 1508 1510 1514 1517 1518 1520 1519 1518 1519 1518 1517 1516 1516 1514 1513 1512 1511 1510 1508 1507 1505 1505 1503 1502 1499 1497 1494 1490 1487 1483 1478
1450 1457 1463 1468 1474 1481 1483 1488 1492 1498 1501 1506 1509 1509 1513 1514 1515 1515 1515 1514 1514 1513 1513 1511 1511 1510 1509 1508 1506 1506 1504 1503 1502 1500 1499 1497 1495 1492 1489 1486 1482 1478 1473
1448 1458 1464 1469 1474 1478 1483 1488 1493 1498 1501 1504 1506 1508 1511 1512 1511 1511 1510 1510 1510 1509 1508 1507 1507 1506 1505 1504 1503 1503 1502 1500 1499 1495 1493 1490 1488 1486 1483 1479 1477 1474 1467
1450 1453 1464 1469 1473 1480 1484 1488 1493 1497 1499 1503 1504 1506 1508 1508 1508 1507 1506 1506 1506 1506 1505 1504 1503 1502 1501 1501 1501 1499 1498 1496 1493 1491 1489 1486 1483 1480 1478 1475 1471 1468 1464
1450 1457 1464 1469 1476 1481 1484 1489 1492 1497 1499 1501 1502 1503 1505 1505 1504 1503 1502 1502 1502 1502 1501 1501 1500 1500 1499 1498 1497 1495 1493 1490 1488 1486 1482 1480 1478 1475 1472 1470 1467 1464 1459
1449 1460 1464 1470 1476 1480 1483 1488 1491 1495 1497 1498 1498 1499 1501 1501 1500 1499 1499 1499 1499 1499 1499 1499 1498 1496 1495 1493 1491 1489 1487 1485 1483 1480 1478 1475 1472 1470 1467 1464 1461 1458 1454
1449 1460 1464 1469 1475 1480 1483 1487 1489 1492 1493 1494 1495 1497 1497 1497 1496 1496 1496 1496 1496 1496 1496 1494 1493 1491 1490 1488 1486 1484 1481 1479 1476 1474 1472 1470 1467 1464 1461 1458 1455 1451 1447
1451 1458 1466 1471 1475 1479 1482 1484 1486 1487 1489 1491 1492 1493 1493 1493 1493 1493 1493 1494 1493 1493 1492 1491 1489 1487 1485 1483 1480 1478 1476 1474 1471 1470 1467 1464 1461 1458 1456 1453 1448 1444 1439
1454 1460 1466 1471 1474 1477 1479 1480 1482 1484 1486 1487 1488 1489 1490 1490 1490 1490 1491 1491 1491 1489 1488 1487 1484 1484 1481 1479 1476 1474 1472 1469 1466 1464 1461 1458 1455 1452 1449 1446 1442 1438 1434
1455 1461 1466 1470 1472 1473 1475 1477 1479 1481 1482 1483 1484 1485 1486 1486 1487 1486 1486 1485 1485 1484 1484 1483 1481 1479 1476 1474 1472 1469 1466 1464 1462 1459 1457 1454 1451 1447 1443 1440 1437 1434 1429
1457 1461 1464 1467 1469 1471 1474 1475 1476 1478 1479 1480 1481 1482 1483 1483 1483 1482 1482 1481 1480 1480 1480 1478 1476 1474 1472 1470 1468 1466 1463 1461 1458 1455 1453 1449 1446 1443 1439 1435 1432 1429 1424
1457 1460 1463 1465 1468 1470 1472 1473 1474 1476 1477 1478 1478 1478 1479 1479 1479 1478 1478 1477 1477 1476 1475 1473 1471 1470 1468 1466 1464 1461 1459 1456 1453 1451 1448 1445 1441 1438 1434 1431 1428 1424 1420
1456 1459 1461 1464 1466 1468 1469 1471 1473 1474 1474 1475 1475 1475 1475 1475 1475 1475 1475 1474 1473 1472 1471 1469 1467 1466 1464 1462 1460 1458 1455 1452 1449 1446 1443 1439 1436 1434 1430 1427 1424 1420 1416
1456 1458 1460 1462 1464 1466 1468 1469 1470 1472 1471 1471 1472 1472 1472 1473 1472 1472 1471 1470 1469 1468 1467 1466 1465 1463 1461 1458 1456 1454 1451 1448 1445 1442 1438 1435 1432 1429 1426 1422 1419 1415 1411
1455 1456 1459 1461 1463 1465 1465 1466 1469 1470 1469 1469 1470 1470 1470 1470 1470 1469 1468 1467 1466 1465 1465 1463 1461 1459 1457 1455 1452 1449 1447 1443 1440 1437 1434 1431 1428 1425 1422 1418 1414 1410 1406
1454 1454 1456 1458 1460 1462 1463 1465 1466 1467 1467 1467 1467 1468 1468 1468 1467 1467 1465 1464 1463 1463 1461 1459 1457 1455 1453 1450 1448 1445 1441 1438 1435 1432 1429 1426 1423 1420 1416 1412 1409 1405 1401
1452 1452 1454 1457 1459 1460 1462 1463 1464 1463 1464 1465 1465 1466 1466 1466 1465 1464 1463 1462 1461 1459 1458 1456 1453 1451 1449 1446 1443 1439 1436 1432 1429 1426 1424 1421 1418 1415 1411 1408 1404 1400 1395
1452 1452 1454 1456 1457 1460 1461 1462 1460 1460 1461 1463 1464 1464 1463 1463 1463 1462 1461 1460 1458 1456 1454 1452 1450 1447 1444 1441 1438 1434 1431 1427 1424 1422 1420 1416 1413 1410 1406 1402 1398 1393 1389
1450 1451 1454 1455 1456 1458 1459 1458 1457 1457 1458 1460 1462 1462 1461 1460 1460 1459 1458 1457 1456 1453 1451 1448 1446 1443 1440 1436 1433 1430 1426 1423 1420 1418 1415 1412 1409 1405 1401 1397 1392 1388 1384
1449 1451 1453 1454 1455 1456 1455 1455 1455 1456 1456 1458 1460 1459 1459 1458 1458 1457 1456 1455 1453 1451 1448 1445 1442 1439 1436 1432 1429 1425 1421 1419 1416 1414 1410 1407 1403 1399 1395 1391 1388 1384 1380